This is the latest recevied weather packets stored in our database for station/object W1CAT. If no packets are shown the sender has not sent any weather packets the latest 10 day(s).
| Time | Temp. | Humidity | Pressure | Rain* | Wind** | Luminosity | Snow |
|---|---|---|---|---|---|---|---|
| 1777866768 | 6.67° C | 47% | - | 0 mm | - | - | - |
| 1777866466 | 7.22° C | 43% | - | 0 mm | - | - | - |
| 1777866163 | 7.78° C | 43% | - | 0 mm | - | - | - |
| 1777865860 | 7.78° C | 41% | - | 0 mm | - | - | - |
| 1777865558 | 7.78° C | 41% | - | 0 mm | - | - | - |
| 1777865255 | 7.22° C | 42% | - | 0 mm | - | - | - |
| 1777864952 | 7.22° C | 45% | - | 0 mm | - | - | - |
| 1777864648 | 7.22° C | 44% | - | 0 mm | - | - | - |
| 1777864346 | 7.78° C | 46% | - | 0 mm | - | - | - |
| 1777864041 | 7.22° C | 45% | - | 0 mm | - | - | - |
| 1777863739 | 7.78° C | 44% | - | 0 mm | - | - | - |
| 1777863435 | 8.33° C | 43% | - | 0 mm | - | - | - |
| 1777863131 | 8.89° C | 42% | - | 0 mm | - | - | - |
| 1777862829 | 8.89° C | 41% | - | 0 mm | - | - | - |
| 1777862525 | 9.44° C | 43% | - | 0 mm | - | - | - |
| 1777862222 | 9.44° C | 41% | - | 0 mm | - | - | - |
| 1777861918 | 8.89° C | 42% | - | 0 mm | - | - | - |
| 1777861615 | 9.44° C | 40% | - | 0 mm | - | - | - |
| 1777861310 | 9.44° C | 36% | - | 0 mm | - | - | - |
| 1777861008 | 10° C | 36% | - | 0 mm | - | - | - |
| 1777860704 | 11.11° C | 35% | - | 0 mm | - | - | - |
| 1777860402 | 11.67° C | 33% | - | 0 mm | - | - | - |
| 1777860097 | 12.78° C | 31% | - | 0 mm | - | - | - |
| 1777859794 | 12.78° C | 30% | - | 0 mm | - | - | - |
| 1777859491 | 13.33° C | 29% | - | 0 mm | - | - | - |
* Rain latest hour (hover to see other rain measurements)
** Current wind speed in m/s (hover to see current wind gust speed)